Regional Weather Roundup
Issued by NWS

Home | Current Version | Previous Version | Text Only | Print | Product List | Glossary On
Versions: 1 2 3 4 5 6 7 8 9 10 11 12 13 14 15 16 17 18 19 20 21 22 23 24 25 26 27 28 29 30 31 32 33 34 35 36 37 38 39 40 41 42 43 44 45 46 47 48 49
634
ASCA42 TJSJ 071810
RWRPR
PUERTO RICO/U.S. VIRGIN ISLANDS HOURLY WEATHER ROUNDUP
NATIONAL WEATHER SERVICE SAN JUAN PR
200 PM AST SUN FEB 07 2016

PRZ001-004-071900-
PUERTO RICO

CITY           SKY/WX    TMP DP  RH WIND       PRES   REMARKS
SAN JUAN LMM   MOSUNNY   84  70  61 SE8G20    30.00F
AGUADILLA      PTSUNNY   82  70  65 N6        30.02F
CEIBA          CLOUDY    82  73  74 SE12      30.04F
$$

PRZ006-007-071900-
U.S. VIRGIN ISLANDS

CITY           SKY/WX    TMP DP  RH WIND       PRES   REMARKS
CHARLOTTE AMA  MOSUNNY   82  73  74 SE15      30.01F
CHRISTIANSTED  MOSUNNY   86  72  62 E16       30.03F HX  92
$$

HOURLY WEATHER ROUNDUP FOR THE NEWS MEDIA

CITY           SKY/WX    TMP DP  RH WIND       PRES   REMARKS
ORLANDO        SUNNY     56  37  49 W22G30    30.01F
NEW YORK       CLOUDY    44  22  41 SE5       30.14F
NEWARK         PTSUNNY   45  21  38 SE5       30.12F
CHICAGO        CLOUDY    42  30  62 SW17G28   29.74F
HARTFORD       SUNNY     42  27  55 SE8       30.16R
BOSTON         MOSUNNY   44  22  41 VRB3      30.14R
DALLAS         MOSUNNY   58  33  39 S15       30.17F
PHILADELPHIA   CLOUDY    45  23  42 E5        30.12F
LOS ANGELES    SUNNY     73  25  16 E6        30.14F
WASHINGTON DC  CLOUDY    42  21  43 N8        30.09F



USA.gov is the U.S. government's official web portal to all federal, state and local government web resources and services.